Вернуться в каталог

KONGJIAN HUANGJING JIANCE

АктивенНаукаSSO
NORAD 67752·PAYLOAD·🇨🇳 China
Это название спутника еще не подтверждено официальными источниками.

Запущен Feb 12, 2026 с South China Sea Launch Area

Loading…

Ближайшие Пролёты (ближайшие 24 часа)

TLE

СвежийSource: Space-Track

Эпоха: Sep 14, 2026, 07:06 UTC

1 67752U 26027G   26257.29603672  .00004687  00000-0  25988-3 0  9991
2 67752  97.5175  23.3686 0010796 305.6458  54.3768 15.14218531 32385

Отслеживайте KONGJIAN HUANGJING JIANCE в реальном времени с AllMySat

Download on the App Store